Погода в Чегдомыне

Россия / Хабаровский край     51°08′01″N   133°02′10″E
темп.,
°C
ветер,
м/с
пор.,
м/с
влажн.,
%
обл.,
%
осадки,
мм/ч
давл.,
гПа
погр.,
м
25 января, вт
вт2501:00−31всв1110069 0.0 10309
04:00−32всв1110082 0.0 10309
07:00−33всв1110071 0.0 10309
10:00−30св009972 0.0 102931
13:00−21з109070 0.0 1026226
16:00−18з10875 0.0 1024229
19:00−27вюв1110054 0.0 10269
22:00−29в1110018 0.0 10279
26 января, ср
ср2601:00−30всв1110055 0.0 10279
04:00−31в1110055 0.0 10289
07:00−32в1110054 0.0 10289
10:00−29св009962 0.0 102829
13:00−20з119085 0.0 1025225
16:00−18зюз118872 0.0 1024241
19:00−26вюв111006 0.0 10269
22:00−29в111008 0.0 10289
27 января, чт
чт2701:00−29всв11100100 0.0 10289
04:00−29в11100100 0.1 10289
07:00−29всв11100100 0.1 10299
10:00−27юз009891 0.1 102856
13:00−21зюз1191100 0.1 1026279
16:00−20юз1190100 0.1 1024313
19:00−25юв11100100 0.0 10249
22:00−22юв0099100 0.1 102223
28 января, пт
пт2801:00−22юз1199100 0.1 102051
04:00−22зсз00100100 0.4 101826
07:00−24с00100100 0.1 10189
10:00−25ссв0010095 0.2 101819
13:00−20сз2386100 0.0 1016483
16:00−19ссз2379100 0.0 1014749
19:00−27вюв119799 0.0 10169
22:00−27всв119995 0.0 10169
29 января, сб
сб2901:00−33всв1110069 0.0 10189
04:00−35всв11100100 0.0 10199
07:00−36всв1110083 0.0 10199
10:00−33ссв009958 0.0 101931
13:00−25з1188100 0.0 1017243
16:00−23зюз1086100 0.0 1016293
19:00−27ююз1198100 0.0 10179
22:00−27юв0099100 0.0 10179